START 1 DEB

Satellite information

Favourite Embed

Satellite Type and Status

DEBRISIN ORBIT

Key statistics

Satellite START 1 DEB at a glance.

Uptime

11734

Days in orbit

Revolutions

≈ 14.3

Per day

Orbit

LEO

Low Earth Orbit

Inclination

75.8

Latest

Satellite identification and parameters

Extended collection of information and parameters for START 1 DEB.

Object identification

Identified? True

Debris? True

Object name: START 1 DEB

International designator: 1993-014F

Object number (NORAD): 25284

Object ID (CCSDS): 25284

Country: COMMONWEALTH OF INDEPENDENT STATES (CIS)

Current information (Y/N): Y

RCS size: MEDIUM

Orbital parameters

Period: 100.802 minutes

Inclination: 75.7621 deg

SMA: 7174.763 km

Apoapsis: 925.062 km

Periapsis: 668.194 km

RAAN: 223.4093 deg

Eccentricy: 0.0179008

Argument of periapsis: 261.634 deg

Mean anomaly: 214.9524 deg

Mean motion: 14.28536815 rev/day

Mean motion (dot): 0.00000617 rev/day2

B* drag term: 0.00021309 1/REarth

Two-line elements (TLE)

Creation date: May 9, 2025, 2:46 a.m.

Reference frame: TEME

Reference center: EARTH

Epoch: May 8, 2025, 5:20 p.m. UTC

TLE line 0: 0 START 1 DEB

TLE line 1: 1 25284U 93014F 25128.72259334 .00000617 00000-0 21309-3 0 9993

TLE line 2: 2 25284 75.7621 223.4093 0179008 261.6340 214.9524 14.28536815411322

Live tracking on map

Real-time ground track for satellite START 1 DEB.

In-orbit conjunctions

A list of the most updated potential collisions computed for object START 1 DEB.

Target Orbit TCA Probability of collision Miss distance Type
CZ-6A DEB LEO 2024-11-08 06:56:41 0.0001143867 738.0 (m) DEBRIS
CZ-6A DEB LEO 2024-11-05 11:39:47 0.0001110097 829.0 (m) DEBRIS

Associated space launch

EKA 1 and 2 were vehicle evaluation payloads on the maiden flights of the Start-1 and Start launch vehicles.

START 1 DEB was lifted into orbit during the mission ‘Start-1 | EKA-1’, on board a Start-1 space rocket.

The launch took place on March 25, 1993, 1:15 p.m. from 158.

For more information about the launch, click the button.

Launch to space Start-1 | EKA-1
Start-1 | EKA-1

Agency: N/A

Status: Launch Successful

Launch date: March 25, 1993, 1:15 p.m. UTC

Rocket: Start-1

Launch pad: 158

Location: Plesetsk Cosmodrome, Russian Federation

...

Latest news about this satellite

There are no fresh news available about this satellite. Check back as we update our databases every day.


Newsletter sign-up

Weekly statistics, charts and insights to help you stay on top of the space industry.